Content
SEND FEEDBACK

Daily
Averages
Monthly
Summary
United States of America

SOUTH LAKE TAHOE, CALIFORNIA


Home > North America > United States > California
Elevation: 1908 meters     Latitude: 38 53N     Longitude: 119 59W

WEATHER
 
SELECT A DAY
Number of Records: 174,391;   Date Range: 1/1/95 - 7/26/14
 
SHARE

PRINT THIS DATA

[ ← Previous Day ]
WEATHER ALMANAC - 5 OCTOBER, 2013
[ Next Day → ]
[ °F ]   °C
Weather ElementAverageHighLow
Temperature5.4 °C17.8 °C (2:53 pm)-6.7 °C (6:53 am)
Dewpoint-8.7 °C-6.1 °C (11:53 am)-11.7 °C (5:53 am)
Humidity41 %68 % (6:53 am)15 % (2:53 pm)
Barometer1028.8 hPa1031.8 hPa (7:53 am)1026.4 hPa (4:53 pm)
Wind Speed3.5 km/h9.3 km/h (7:53 am)
Weather ElementAverage
Visibility15.8 km
Wind DirectionENE (55.2 °)

Weather ElementTotal
Precipitation---
Heating Degree Days12.8 (Base 18.3)
Averaged from 23 records on 5 October, 2013
WEATHER CONDITIONS BREAKOUT
WIND DIRECTION BREAKOUT
WEATHER BY HOUR - 5 OCTOBER, 2013
[ °F ]   °C
Local TimeTemperatureDewpointHumidityBarometerVisibilityWind DirectionWind SpeedGust SpeedPrecipitationEventsConditions
1:53 AM-3.3 °C-11.1 °C55 %1028.4 hPa16.1 kmSSW (200°)5.6 km/hClear
2:53 AM-3.3 °C-10.6 °C58 %1028.4 hPa16.1 kmSSW (200°)5.6 km/hClear
3:53 AM-4.4 °C-11.1 °C60 %1028.8 hPa16.1 kmCalmClear
4:53 AM-4.4 °C-11.1 °C60 %1028.8 hPa16.1 kmCalmClear
5:53 AM-5.6 °C-11.7 °C63 %1029.8 hPa16.1 kmCalmClear
6:53 AM-6.7 °C-11.7 °C68 %1030.8 hPa16.1 kmSouth (190°)5.6 km/hClear
7:53 AM-5 °C-11.1 °C63 %1031.8 hPa16.1 kmSouth (180°)9.3 km/hClear
8:53 AM1.1 °C-9.4 °C46 %1030.8 hPa16.1 kmSouth (180°)5.6 km/hClear
9:53 AM8.9 °C-6.7 °C33 %1029.8 hPa16.1 kmCalmClear
10:53 AM11.7 °C-6.7 °C27 %1029.5 hPa16.1 kmENE (70°)5.6 km/hClear
11:53 AM13.3 °C-6.1 °C26 %1029.1 hPa16.1 kmVariable5.6 km/hClear
12:53 PM15.6 °C-6.7 °C21 %1028.1 hPa16.1 kmVariable9.3 km/hClear
1:53 PM16.7 °C-9.4 °C16 %1027.4 hPa16.1 kmVariable5.6 km/hClear
2:53 PM17.8 °C-9.4 °C15 %1026.8 hPa16.1 kmCalmClear
3:53 PM17.8 °C-8.3 °C16 %1026.8 hPa16.1 kmNNE (20°)9.3 km/hClear
4:53 PM17.8 °C-8.9 °C16 %1026.4 hPa16.1 kmNNE (20°)7.4 km/hClear
5:53 PM12.8 °C-6.1 °C27 %1027.4 hPa16.1 kmCalmClear
6:53 PM9.4 °C-8.3 °C28 %1028.8 hPa16.1 kmCalmClear
7:53 PM6.7 °C-6.7 °C38 %1029.1 hPa16.1 kmSSW (210°)5.6 km/hClear
8:53 PM4.4 °C-7.2 °C43 %1028.8 hPa16.1 kmCalmClear
9:53 PM2.8 °C-6.7 °C50 %1027.8 hPa16.1 kmCalmClear
10:53 PM0.6 °C-7.8 °C54 %1027.8 hPa16.1 kmCalmClear
11:53 PM-0.6 °C-7.8 °C59 %1027.4 hPa8 kmCalmHaze
Hourly data recorded from KTVL, located 0 kilometers away from South Lake Tahoe, California







STORIES FROM OUR PARTNERS